This is the latest recevied weather packets stored in our database for station/object KQ7A. If no packets are shown the sender has not sent any weather packets the latest 10 day(s).
| Time | Temp. | Humidity | Pressure | Rain* | Wind** | Luminosity | Snow |
|---|---|---|---|---|---|---|---|
| 1777988180 | 6.67° C | 98% | 1012.3 hPa | 0 mm | - | 3 W/m² | - |
| 1777987875 | 6.11° C | 97% | 1012.4 hPa | 0 mm | - | 4 W/m² | - |
| 1777987572 | 6.11° C | 97% | 1012.2 hPa | 0 mm | - | 3 W/m² | - |
| 1777987270 | 6.11° C | 98% | 1012.3 hPa | 0 mm | - | 2 W/m² | - |
| 1777986966 | 6.11° C | 97% | 1012.2 hPa | 0 mm | - | 2 W/m² | - |
| 1777986664 | 6.11° C | 97% | 1012.1 hPa | 0 mm | - | 0 W/m² | - |
| 1777986362 | 6.67° C | 97% | 1012.2 hPa | 0 mm | - | 0 W/m² | - |
| 1777986060 | 6.11° C | 97% | 1012.4 hPa | 0 mm | - | 0 W/m² | - |
| 1777985756 | 6.11° C | 97% | 1012.4 hPa | 0 mm | - | 0 W/m² | - |
| 1777985453 | 6.67° C | 97% | 1012.1 hPa | 0 mm | - | 0 W/m² | - |
| 1777985150 | 6.11° C | 97% | 1012.3 hPa | 0 mm | - | 0 W/m² | - |
| 1777984846 | 6.11° C | 98% | 1012.3 hPa | 0 mm | - | 0 W/m² | - |
| 1777984543 | 6.11° C | 97% | 1012.3 hPa | 0 mm | - | 0 W/m² | - |
| 1777984239 | 6.11° C | 97% | 1012.4 hPa | 0 mm | - | 0 W/m² | - |
| 1777983936 | 6.11° C | 97% | 1012.1 hPa | 0 mm | - | 0 W/m² | - |
| 1777983633 | 6.11° C | 97% | 1012.3 hPa | 0 mm | - | 0 W/m² | - |
| 1777983329 | 6.11° C | 97% | 1012 hPa | 1.27 mm | - | 0 W/m² | - |
| 1777983026 | 6.11° C | 97% | 1012 hPa | 1.27 mm | - | 0 W/m² | - |
| 1777982722 | 6.11° C | 97% | 1012.1 hPa | 0 mm | - | 0 W/m² | - |
| 1777982418 | 6.11° C | 97% | 1012.1 hPa | 1.78 mm | - | 0 W/m² | - |
| 1777982113 | 6.11° C | 97% | 1012.1 hPa | 1.78 mm | - | 0 W/m² | - |
| 1777981811 | 6.11° C | 97% | 1012.1 hPa | 0 mm | - | 0 W/m² | - |
| 1777981508 | 6.11° C | 97% | 1012.1 hPa | 1.27 mm | - | 0 W/m² | - |
| 1777981204 | 6.11° C | 97% | 1012.2 hPa | 1.27 mm | - | 0 W/m² | - |
| 1777980901 | 6.11° C | 97% | 1012.2 hPa | 1.78 mm | - | 0 W/m² | - |
* Rain latest hour (hover to see other rain measurements)
** Current wind speed in m/s (hover to see current wind gust speed)